{"data":{"norad_id":58540,"intl_designator":"2023-192K","name":"STARLINK-31019","alt_names":[],"object_type":"PAYLOAD","status":"ACTIVE","operator":null,"country":"US","launch_date":"2023-12-08","launch_site_code":"AFWTR","launch_vehicle":null,"mission":null,"orbit_class":"UNKNOWN","rcs_meters":null,"size_class":null,"mass_kg":null,"dimensions":null,"purposes":["comms"],"wikipedia_slug":null,"has_3d_model":false,"image_url":null,"decayed_at":null,"tle_current":{"epoch":"2026-05-25T04:22:47.173152Z","epoch_age_seconds":53155,"freshness":"FRESH","line1":"1 58540U 23192K   26145.18249043  .00001059  00000+0  42497-4 0  9992","line2":"2 58540  53.1615  66.9518 0001190  79.0183 281.0953 15.34391780137706","mean_motion":15.3439178,"eccentricity":0.000119,"inclination_deg":53.1615,"raan_deg":66.9518,"arg_perigee_deg":79.0183,"mean_anomaly_deg":281.0953,"bstar":4.2497e-5,"rev_number":13770,"period_min":93.848260839875,"perigee_km":461.91360899251,"apogee_km":463.54173478442,"semimajor_km":6840.8646718885,"source":"CELESTRAK","updated_at":"2026-05-25T13:38:18.662009Z"}}}